Time,TemperatureF,DewpointF,PressureIn,WindDirection,WindDirectionDegrees,WindSpeedMPH,WindSpeedGustMPH,Humidity,HourlyPrecipIn,Conditions,Clouds,dailyrainin,SoftwareType,DateUTC
2013-03-20 00:03:00,29.0,15.0,-100.00,SW,225,13.0,13.0,55,0.00,,,-99.99,,2013-03-20 04:03:00,
2013-03-20 00:12:00,29.0,15.0,-100.00,SW,225,13.0,14.0,56,0.00,,,-99.99,,2013-03-20 04:12:00,
2013-03-20 00:23:00,29.0,16.0,-100.00,SW,230,13.0,16.0,57,0.00,,,-99.99,,2013-03-20 04:23:00,
2013-03-20 00:32:00,29.0,16.0,-100.00,SW,225,13.0,16.0,58,0.00,,,-99.99,,2013-03-20 04:32:00,
2013-03-20 00:43:00,29.0,16.0,-100.00,SW,230,13.0,18.0,58,0.00,,,-99.99,,2013-03-20 04:43:00,
2013-03-20 00:52:00,28.0,16.0,-100.00,SW,225,13.0,17.0,59,0.00,,,-99.99,,2013-03-20 04:52:00,
2013-03-20 01:03:00,28.0,16.0,-100.00,SW,230,13.0,20.0,60,0.00,,,-99.99,,2013-03-20 05:03:00,
2013-03-20 01:12:00,28.0,16.0,-100.00,SW,230,14.0,19.0,59,0.00,,,-99.99,,2013-03-20 05:12:00,
2013-03-20 01:23:00,28.0,15.0,-100.00,SW,230,14.0,25.0,59,0.00,,,-99.99,,2013-03-20 05:23:00,
2013-03-20 01:32:00,28.0,15.0,-100.00,SW,230,14.0,20.0,59,0.00,,,-99.99,,2013-03-20 05:32:00,
2013-03-20 01:42:00,27.0,15.0,-100.00,SW,225,14.0,17.0,60,0.00,,,-99.99,,2013-03-20 05:42:00,
2013-03-20 01:52:00,27.0,15.0,-100.00,SW,230,14.0,18.0,60,0.00,,,-99.99,,2013-03-20 05:52:00,
2013-03-20 02:03:00,27.0,16.0,-100.00,SW,235,13.0,17.0,62,0.00,,,-99.99,,2013-03-20 06:03:00,
2013-03-20 02:12:00,27.0,16.0,-100.00,SW,230,14.0,19.0,61,0.00,,,-99.99,,2013-03-20 06:12:00,
2013-03-20 02:22:00,27.0,16.0,-100.00,SW,230,13.0,17.0,62,0.00,,,-99.99,,2013-03-20 06:22:00,
2013-03-20 02:32:00,27.0,16.0,-100.00,SW,225,15.0,20.0,61,0.00,,,-99.99,,2013-03-20 06:32:00,
2013-03-20 02:42:00,27.0,15.0,-100.00,SW,230,14.0,22.0,62,0.00,,,-99.99,,2013-03-20 06:42:00,
2013-03-20 02:52:00,26.0,15.0,-100.00,SW,225,15.0,20.0,61,0.00,,,-99.99,,2013-03-20 06:52:00,
2013-03-20 03:02:00,26.0,15.0,-100.00,SW,225,14.0,17.0,62,0.00,,,-99.99,,2013-03-20 07:02:00,
2013-03-20 03:12:00,26.0,15.0,-100.00,SW,225,13.0,21.0,62,0.00,,,-99.99,,2013-03-20 07:12:00,
2013-03-20 03:22:00,26.0,15.0,-100.00,SW,225,14.0,17.0,63,0.00,,,-99.99,,2013-03-20 07:22:00,
2013-03-20 03:32:00,26.0,15.0,-100.00,SW,225,13.0,17.0,63,0.00,,,-99.99,,2013-03-20 07:32:00,
2013-03-20 03:42:00,26.0,15.0,-100.00,SW,225,13.0,17.0,63,0.00,,,-99.99,,2013-03-20 07:42:00,
2013-03-20 03:52:00,26.0,15.0,-100.00,SW,230,14.0,17.0,63,0.00,,,-99.99,,2013-03-20 07:52:00,
2013-03-20 04:02:00,26.0,15.0,-100.00,SW,225,13.0,18.0,63,0.00,,,-99.99,,2013-03-20 08:02:00,
2013-03-20 04:12:00,25.0,15.0,-100.00,SW,230,13.0,16.0,64,0.00,,,-99.99,,2013-03-20 08:12:00,
2013-03-20 04:22:00,25.0,15.0,-100.00,SW,230,13.0,16.0,63,0.00,,,-99.99,,2013-03-20 08:22:00,
2013-03-20 04:32:00,25.0,15.0,-100.00,SW,225,13.0,15.0,64,0.00,,,-99.99,,2013-03-20 08:32:00,
2013-03-20 04:42:00,25.0,15.0,-100.00,SW,220,13.0,13.0,65,0.00,,,-99.99,,2013-03-20 08:42:00,
2013-03-20 04:52:00,25.0,15.0,-100.00,SW,220,13.0,13.0,65,0.00,,,-99.99,,2013-03-20 08:52:00,
2013-03-20 05:02:00,24.0,15.0,-100.00,SW,225,13.0,13.0,65,0.00,,,-99.99,,2013-03-20 09:02:00,
2013-03-20 05:12:00,24.0,15.0,-100.00,SW,225,13.0,14.0,67,0.00,,,-99.99,,2013-03-20 09:12:00,
2013-03-20 05:22:00,24.0,15.0,-100.00,SW,215,13.0,13.0,67,0.00,,,-99.99,,2013-03-20 09:22:00,
2013-03-20 05:33:00,24.0,15.0,-100.00,SW,215,13.0,13.0,67,0.00,,,-99.99,,2013-03-20 09:33:00,
2013-03-20 05:43:00,24.0,15.0,-100.00,SW,220,13.0,13.0,68,0.00,,,-99.99,,2013-03-20 09:43:00,
2013-03-20 05:52:00,24.0,15.0,-100.00,SW,220,13.0,13.0,67,0.00,,,-99.99,,2013-03-20 09:52:00,
2013-03-20 06:03:00,24.0,15.0,-100.00,SW,220,13.0,14.0,67,0.00,,,-99.99,,2013-03-20 10:03:00,
2013-03-20 06:13:00,24.0,15.0,-100.00,SW,230,13.0,13.0,67,0.00,,,-99.99,,2013-03-20 10:13:00,
2013-03-20 06:23:00,24.0,16.0,-100.00,SW,225,13.0,13.0,69,0.00,,,-99.99,,2013-03-20 10:23:00,
2013-03-20 06:33:00,24.0,16.0,-100.00,SW,225,13.0,13.0,69,0.00,,,-99.99,,2013-03-20 10:33:00,
2013-03-20 06:42:00,25.0,16.0,-100.00,SW,220,13.0,13.0,69,0.00,,,-99.99,,2013-03-20 10:42:00,
2013-03-20 06:52:00,24.0,16.0,-100.00,SW,225,13.0,13.0,68,0.00,,,-99.99,,2013-03-20 10:52:00,
2013-03-20 07:03:00,24.0,16.0,-100.00,SW,225,13.0,13.0,69,0.00,,,-99.99,,2013-03-20 11:03:00,
2013-03-20 07:12:00,24.0,16.0,-100.00,SW,235,13.0,13.0,71,0.00,,,-99.99,,2013-03-20 11:12:00,
2013-03-20 07:22:00,24.0,14.0,-100.00,WSW,240,13.0,22.0,65,0.00,,,-99.99,,2013-03-20 11:22:00,
2013-03-20 07:32:00,23.0,13.0,-100.00,SW,235,14.0,19.0,63,0.00,,,-99.99,,2013-03-20 11:32:00,
2013-03-20 07:42:00,23.0,13.0,-100.00,SW,235,13.0,18.0,65,0.00,,,-99.99,,2013-03-20 11:42:00,
2013-03-20 07:52:00,23.0,13.0,-100.00,SW,230,13.0,16.0,65,0.00,,,-99.99,,2013-03-20 11:52:00,
2013-03-20 08:02:00,23.0,13.0,-100.00,SW,230,13.0,14.0,66,0.00,,,-99.99,,2013-03-20 12:02:00,
2013-03-20 08:12:00,22.0,13.0,-100.00,SW,220,13.0,14.0,66,0.00,,,-99.99,,2013-03-20 12:12:00,
2013-03-20 08:22:00,22.0,12.0,-100.00,SW,225,13.0,14.0,65,0.00,,,-99.99,,2013-03-20 12:22:00,
2013-03-20 08:32:00,22.0,12.0,-100.00,SW,230,13.0,16.0,64,0.00,,,-99.99,,2013-03-20 12:32:00,
2013-03-20 08:42:00,22.0,12.0,-100.00,SW,225,13.0,14.0,64,0.00,,,-99.99,,2013-03-20 12:42:00,
2013-03-20 08:52:00,23.0,13.0,-100.00,SW,230,13.0,13.0,64,0.00,,,-99.99,,2013-03-20 12:52:00,
2013-03-20 09:03:00,24.0,13.0,-100.00,SW,230,13.0,13.0,62,0.00,,,-99.99,,2013-03-20 13:03:00,
2013-03-20 09:12:00,24.0,13.0,-100.00,SW,230,13.0,13.0,62,0.00,,,-99.99,,2013-03-20 13:12:00,
2013-03-20 09:22:00,24.0,13.0,-100.00,SW,235,13.0,13.0,60,0.00,,,-99.99,,2013-03-20 13:22:00,
2013-03-20 09:32:00,24.0,13.0,-100.00,SW,220,13.0,13.0,64,0.00,,,-99.99,,2013-03-20 13:32:00,
2013-03-20 09:42:00,23.0,15.0,-100.00,SW,230,13.0,15.0,69,6.77,,,-99.99,,2013-03-20 13:42:00,
2013-03-20 09:52:00,24.0,13.0,-100.00,SW,225,13.0,16.0,64,0.00,,,-99.99,,2013-03-20 13:52:00,
2013-03-20 10:03:00,24.0,13.0,-100.00,SW,225,13.0,13.0,63,0.00,,,-99.99,,2013-03-20 14:03:00,
2013-03-20 10:12:00,24.0,14.0,-100.00,SW,215,13.0,15.0,66,0.00,,,-99.99,,2013-03-20 14:12:00,
2013-03-20 10:23:00,24.0,14.0,-100.00,SW,235,13.0,14.0,66,0.00,,,-99.99,,2013-03-20 14:23:00,
2013-03-20 10:34:00,25.0,15.0,-100.00,SW,225,13.0,13.0,64,0.00,,,-99.99,,2013-03-20 14:34:00,
2013-03-20 10:42:00,25.0,15.0,-100.00,SW,225,13.0,13.0,64,0.00,,,-99.99,,2013-03-20 14:42:00,
2013-03-20 10:52:00,24.0,15.0,-100.00,SW,225,13.0,13.0,66,0.00,,,-99.99,,2013-03-20 14:52:00,
2013-03-20 11:03:00,24.0,15.0,-100.00,SW,225,13.0,13.0,66,0.00,,,-99.99,,2013-03-20 15:03:00,
2013-03-20 11:12:00,26.0,9.0,-100.00,SW,225,13.0,13.0,49,0.00,,,-99.99,,2013-03-20 15:12:00,
2013-03-20 11:22:00,26.0,9.0,-100.00,WSW,250,13.0,13.0,49,0.00,,,-99.99,,2013-03-20 15:22:00,
2013-03-20 11:33:00,25.0,11.0,-100.00,SW,225,13.0,13.0,53,0.00,,,-99.99,,2013-03-20 15:33:00,
2013-03-20 11:43:00,27.0,11.0,-100.00,SW,225,13.0,14.0,51,0.00,,,-99.99,,2013-03-20 15:43:00,
2013-03-20 11:52:00,26.0,9.0,-100.00,SW,230,13.0,13.0,48,0.00,,,-99.99,,2013-03-20 15:52:00,
2013-03-20 12:03:00,25.0,10.0,-100.00,SW,215,13.0,15.0,52,0.00,,,-99.99,,2013-03-20 16:03:00,
2013-03-20 12:12:00,25.0,9.0,-100.00,SW,235,13.0,14.0,50,0.00,,,-99.99,,2013-03-20 16:12:00,
2013-03-20 12:23:00,26.0,9.0,-100.00,SW,235,13.0,14.0,48,0.00,,,-99.99,,2013-03-20 16:23:00,
2013-03-20 12:33:00,26.0,8.0,-100.00,SW,230,13.0,16.0,47,0.00,,,-99.99,,2013-03-20 16:33:00,
2013-03-20 12:43:00,26.0,10.0,-100.00,SW,235,13.0,13.0,48,0.00,,,-99.99,,2013-03-20 16:43:00,
2013-03-20 12:52:00,26.0,8.0,-100.00,SW,220,13.0,15.0,46,0.00,,,-99.99,,2013-03-20 16:52:00,
2013-03-20 13:03:00,26.0,8.0,-100.00,SW,225,13.0,14.0,46,0.00,,,-99.99,,2013-03-20 17:03:00,
2013-03-20 13:12:00,26.0,8.0,-100.00,SW,225,13.0,14.0,46,0.00,,,-99.99,,2013-03-20 17:12:00,
2013-03-20 13:22:00,26.0,9.0,-100.00,SW,225,13.0,16.0,47,0.00,,,-99.99,,2013-03-20 17:22:00,
2013-03-20 13:32:00,27.0,10.0,-100.00,SW,225,13.0,14.0,49,0.00,,,-99.99,,2013-03-20 17:32:00,
2013-03-20 13:42:00,26.0,8.0,-100.00,SW,230,13.0,15.0,46,0.00,,,-99.99,,2013-03-20 17:42:00,
2013-03-20 13:53:00,26.0,9.0,-100.00,SW,220,13.0,13.0,47,0.00,,,-99.99,,2013-03-20 17:53:00,
2013-03-20 14:02:00,27.0,10.0,-100.00,SW,230,13.0,14.0,48,0.00,,,-99.99,,2013-03-20 18:02:00,
2013-03-20 14:12:00,28.0,10.0,-100.00,SW,220,13.0,14.0,47,0.00,,,-99.99,,2013-03-20 18:12:00,
2013-03-20 14:22:00,28.0,11.0,-100.00,WSW,240,13.0,14.0,47,0.00,,,-99.99,,2013-03-20 18:22:00,
2013-03-20 14:33:00,26.0,9.0,-100.00,WSW,240,13.0,14.0,48,0.00,,,-99.99,,2013-03-20 18:33:00,
2013-03-20 14:42:00,26.0,9.0,-100.00,SW,235,14.0,15.0,46,0.00,,,-99.99,,2013-03-20 18:42:00,
2013-03-20 14:52:00,27.0,8.0,-100.00,SW,225,13.0,16.0,43,0.00,,,-99.99,,2013-03-20 18:52:00,
2013-03-20 15:02:00,28.0,10.0,-100.00,WSW,240,13.0,13.0,46,0.00,,,-99.99,,2013-03-20 19:02:00,
2013-03-20 15:12:00,25.0,8.0,-100.00,WSW,240,14.0,21.0,47,0.00,,,-99.99,,2013-03-20 19:12:00,
2013-03-20 15:22:00,25.0,8.0,-100.00,WSW,240,14.0,21.0,47,0.00,,,-99.99,,2013-03-20 19:22:00,
2013-03-20 15:32:00,26.0,8.0,-100.00,WSW,245,13.0,23.0,46,0.00,,,-99.99,,2013-03-20 19:32:00,
2013-03-20 15:42:00,26.0,8.0,-100.00,SW,220,13.0,21.0,47,0.00,,,-99.99,,2013-03-20 19:42:00,
2013-03-20 15:52:00,28.0,9.0,-100.00,SW,235,13.0,14.0,45,0.00,,,-99.99,,2013-03-20 19:52:00,
2013-03-20 16:02:00,26.0,9.0,-100.00,WSW,240,13.0,13.0,46,0.00,,,-99.99,,2013-03-20 20:02:00,
2013-03-20 16:13:00,27.0,8.0,-100.00,SW,230,13.0,13.0,43,0.00,,,-99.99,,2013-03-20 20:13:00,
2013-03-20 16:22:00,27.0,9.0,-100.00,SW,230,13.0,13.0,46,0.00,,,-99.99,,2013-03-20 20:22:00,
2013-03-20 16:32:00,26.0,7.0,-100.00,SW,235,13.0,13.0,42,0.00,,,-99.99,,2013-03-20 20:32:00,
2013-03-20 16:42:00,26.0,7.0,-100.00,SW,230,13.0,16.0,43,0.00,,,-99.99,,2013-03-20 20:42:00,
2013-03-20 16:52:00,26.0,8.0,-100.00,SW,230,14.0,17.0,45,0.00,,,-99.99,,2013-03-20 20:52:00,
2013-03-20 17:02:00,25.0,7.0,-100.00,WSW,245,13.0,19.0,46,0.00,,,-99.99,,2013-03-20 21:02:00,
2013-03-20 17:12:00,25.0,7.0,-100.00,SW,235,16.0,19.0,46,0.00,,,-99.99,,2013-03-20 21:12:00,
2013-03-20 17:22:00,26.0,7.0,-100.00,WSW,240,13.0,17.0,44,0.00,,,-99.99,,2013-03-20 21:22:00,
2013-03-20 17:33:00,25.0,7.0,-100.00,WSW,240,13.0,16.0,46,0.00,,,-99.99,,2013-03-20 21:33:00,
2013-03-20 17:42:00,25.0,5.0,-100.00,SW,230,13.0,17.0,40,0.00,,,-99.99,,2013-03-20 21:42:00,
2013-03-20 17:52:00,26.0,5.0,-100.00,SW,230,13.0,17.0,39,0.00,,,-99.99,,2013-03-20 21:52:00,
2013-03-20 18:03:00,24.0,5.0,-100.00,WSW,240,13.0,15.0,43,0.00,,,-99.99,,2013-03-20 22:03:00,
2013-03-20 18:12:00,24.0,6.0,-100.00,SW,230,14.0,19.0,44,0.00,,,-99.99,,2013-03-20 22:12:00,
2013-03-20 18:23:00,24.0,4.0,-100.00,SW,230,13.0,18.0,42,0.00,,,-99.99,,2013-03-20 22:23:00,
2013-03-20 18:33:00,24.0,6.0,-100.00,WSW,245,14.0,18.0,43,0.00,,,-99.99,,2013-03-20 22:33:00,
2013-03-20 18:42:00,24.0,7.0,-100.00,WSW,245,13.0,15.0,46,0.00,,,-99.99,,2013-03-20 22:42:00,
2013-03-20 18:52:00,23.0,6.0,-100.00,WSW,245,13.0,15.0,46,0.00,,,-99.99,,2013-03-20 22:52:00,
2013-03-20 19:02:00,23.0,5.0,-100.00,WSW,240,14.0,18.0,45,0.00,,,-99.99,,2013-03-20 23:02:00,
2013-03-20 19:12:00,23.0,5.0,-100.00,WSW,240,13.0,19.0,45,0.00,,,-99.99,,2013-03-20 23:12:00,
2013-03-20 19:23:00,23.0,6.0,-100.00,WSW,240,13.0,16.0,47,0.00,,,-99.99,,2013-03-20 23:23:00,
2013-03-20 19:32:00,22.0,6.0,-100.00,WSW,255,15.0,17.0,50,0.00,,,-99.99,,2013-03-20 23:32:00,
2013-03-20 19:42:00,22.0,7.0,-100.00,WSW,250,14.0,17.0,52,0.00,,,-99.99,,2013-03-20 23:42:00,
2013-03-20 19:52:00,21.0,5.0,-100.00,WSW,250,15.0,23.0,50,0.00,,,-99.99,,2013-03-20 23:52:00,
2013-03-20 20:03:00,21.0,5.0,-100.00,WSW,250,15.0,23.0,50,0.00,,,-99.99,,2013-03-21 00:03:00,
2013-03-20 20:12:00,20.0,5.0,-100.00,WSW,250,15.0,22.0,50,0.00,,,-99.99,,2013-03-21 00:12:00,
2013-03-20 20:23:00,20.0,4.0,-100.00,WSW,245,14.0,21.0,49,0.00,,,-99.99,,2013-03-21 00:23:00,
2013-03-20 20:33:00,20.0,5.0,-100.00,WSW,245,13.0,20.0,51,0.00,,,-99.99,,2013-03-21 00:33:00,
2013-03-20 20:42:00,20.0,6.0,-100.00,WSW,250,11.0,17.0,52,0.00,,,-99.99,,2013-03-21 00:42:00,
2013-03-20 20:52:00,20.0,6.0,-100.00,WSW,255,12.0,19.0,55,0.00,,,-99.99,,2013-03-21 00:52:00,
2013-03-20 21:02:00,19.0,6.0,-100.00,WSW,245,10.0,17.0,56,0.00,,,-99.99,,2013-03-21 01:02:00,
2013-03-20 21:12:00,19.0,7.0,-100.00,WSW,250,9.0,14.0,57,0.00,,,-99.99,,2013-03-21 01:12:00,
2013-03-20 21:22:00,19.0,7.0,-100.00,WSW,240,8.0,14.0,58,0.00,,,-99.99,,2013-03-21 01:22:00,
2013-03-20 21:33:00,19.0,8.0,-100.00,WSW,240,7.0,12.0,61,0.00,,,-99.99,,2013-03-21 01:33:00,
2013-03-20 21:42:00,19.0,8.0,-100.00,WSW,250,10.0,15.0,60,0.00,,,-99.99,,2013-03-21 01:42:00,
2013-03-20 21:52:00,19.0,8.0,-100.00,WSW,250,9.0,11.0,62,0.00,,,-99.99,,2013-03-21 01:52:00,
2013-03-20 22:02:00,18.0,8.0,-100.00,WSW,240,7.0,10.0,64,0.00,,,-99.99,,2013-03-21 02:02:00,
2013-03-20 22:12:00,19.0,9.0,-100.00,WSW,250,11.0,16.0,64,0.00,,,-99.99,,2013-03-21 02:12:00,
2013-03-20 22:22:00,19.0,9.0,-100.00,WSW,250,12.0,16.0,64,0.00,,,-99.99,,2013-03-21 02:22:00,
2013-03-20 22:33:00,19.0,9.0,-100.00,WSW,250,10.0,16.0,66,0.00,,,-99.99,,2013-03-21 02:33:00,
2013-03-20 22:42:00,19.0,9.0,-100.00,WSW,250,10.0,16.0,66,0.00,,,-99.99,,2013-03-21 02:42:00,
2013-03-20 22:51:00,19.0,9.0,-100.00,WSW,250,10.0,16.0,66,0.00,,,-99.99,,2013-03-21 02:51:00,
2013-03-20 23:02:00,18.0,10.0,-100.00,SW,235,7.0,12.0,71,0.00,,,-99.99,,2013-03-21 03:02:00,
2013-03-20 23:12:00,17.0,11.0,-100.00,WSW,240,7.0,11.0,73,0.00,,,-99.99,,2013-03-21 03:12:00,
2013-03-20 23:22:00,18.0,11.0,-100.00,SW,235,9.0,12.0,73,0.00,,,-99.99,,2013-03-21 03:22:00,
2013-03-20 23:33:00,17.0,11.0,-100.00,SW,235,7.0,10.0,75,0.00,,,-99.99,,2013-03-21 03:33:00,
2013-03-20 23:43:00,17.0,11.0,-100.00,SW,235,7.0,12.0,76,0.00,,,-99.99,,2013-03-21 03:43:00,
2013-03-20 23:53:00,17.0,11.0,-100.00,SW,235,7.0,12.0,77,0.00,,,-99.99,,2013-03-21 03:53:00,